Date String (YYYY-MM-DD hh:mm:ss) UTC,Instrument flags,Ambient pressure (hPa),Sample flow (lpm),Bypass flow (lpm),Sample temperature (°C),Ambient temperature (°C),ASC tube jacket temperature (°C),LED temperature (°C),Box temperature (°C),Sample RH (%),Span deviation,Mass concentration (μg/m³),Mass concentration (μg/m³),Mass concentration (μg/m³)
DateTimeUTC,F1_M11,P_M11,Q1_M11,Q2_M11,T1_M11,T2_M11,T3_M11,T4_M11,T5_M11,U1_M11,ZSPAN_M11,X0_M11,X2_M11,X1_M11
2021-12-21 10:00:00,,0822.4,4.99,0.00,21.8,21.0,00.0,31.0,23.4,08.8,0000.0,0012.04,0004.98,0003.69
2021-12-21 10:01:00,,0822.2,5.01,0.00,21.8,21.0,00.0,31.0,23.4,09.0,0000.0,0013.10,0005.27,0003.86
2021-12-21 10:02:00,,0822.0,4.98,0.00,21.8,21.0,00.0,30.9,23.4,06.9,0000.0,0011.76,0004.93,0003.66
2021-12-21 10:03:00,,0821.9,5.01,0.00,21.8,20.9,00.0,30.9,23.4,06.3,0000.0,0010.34,0004.41,0003.33
2021-12-21 10:04:00,,0821.9,4.99,0.00,21.8,20.9,00.0,30.9,23.4,06.2,0000.0,0009.17,0003.91,0002.93
2021-12-21 10:05:00,,0821.6,5.00,0.00,21.8,20.9,00.0,30.9,23.4,06.1,0000.0,0008.30,0003.43,0002.37
2021-12-21 10:06:00,,0821.8,5.01,0.00,21.8,21.0,00.0,30.9,23.5,06.0,0000.0,0007.67,0002.96,0001.93
2021-12-21 10:07:00,,0821.8,4.99,0.00,21.8,21.6,00.0,30.9,23.6,06.0,0000.0,0007.19,0002.68,0001.71
2021-12-21 10:08:00,,0822.0,5.00,0.00,22.0,22.6,00.0,31.0,24.0,05.9,0000.0,0007.53,0002.65,0001.56
2021-12-21 10:09:00,,0822.1,4.99,0.00,22.2,23.3,00.0,31.0,24.3,05.8,0000.0,0007.53,0002.55,0001.41
2021-12-21 10:10:00,,0821.9,5.01,0.00,22.3,23.1,00.0,31.0,24.3,05.7,0000.0,0007.21,0002.37,0001.29
2021-12-21 10:11:00,,0822.3,5.00,0.00,22.3,22.8,00.0,31.1,24.2,05.8,0000.0,0006.44,0002.00,0001.05
2021-12-21 10:12:00,,0822.5,5.01,0.00,22.3,22.5,00.0,31.1,24.1,06.0,0000.0,0004.43,0001.25,0000.62
2021-12-21 10:13:00,,0822.3,5.00,0.00,22.2,22.2,00.0,31.1,24.0,07.4,0000.0,0005.62,0001.19,0000.56
2021-12-21 10:14:00,,0821.7,4.99,0.00,22.2,22.0,00.0,31.1,23.9,06.1,0000.0,0007.84,0001.38,0000.67
2021-12-21 10:15:00,,0821.8,5.01,0.00,22.2,21.8,00.0,31.1,23.9,05.8,0000.0,0008.02,0001.41,0000.67
2021-12-21 10:16:00,,0822.2,5.01,0.00,22.2,21.7,00.0,31.1,23.9,05.7,0000.0,0008.07,0001.44,0000.68
2021-12-21 10:17:00,,0822.3,5.00,0.00,22.2,21.6,00.0,31.1,23.9,05.7,0000.0,0007.86,0001.43,0000.68
2021-12-21 10:18:00,,0822.4,4.98,0.00,22.2,21.6,00.0,31.1,23.9,06.1,0000.0,0007.76,0001.43,0000.70
2021-12-21 10:19:00,,0822.4,5.02,0.00,22.2,21.5,00.0,31.1,23.8,08.3,0000.0,0008.62,0001.79,0000.98
2021-12-21 10:20:00,,0822.3,4.99,0.00,22.1,21.4,00.0,31.1,23.8,08.6,0000.0,0010.21,0002.52,0001.42
2021-12-21 10:21:00,,0822.1,5.01,0.00,22.1,21.4,00.0,31.1,23.8,06.5,0000.0,0011.00,0002.80,0001.61
2021-12-21 10:22:00,,0821.9,4.99,0.00,22.1,21.4,00.0,31.1,23.8,05.8,0000.0,0011.31,0002.79,0001.61
2021-12-21 10:23:00,,0822.3,5.01,0.00,22.1,21.3,00.0,31.1,23.8,05.9,0000.0,0011.18,0002.78,0001.61
2021-12-21 10:24:00,,0822.4,4.99,0.00,22.1,21.3,00.0,31.1,23.8,06.9,0000.0,0010.26,0002.68,0001.55
2021-12-21 10:25:00,,0822.4,5.00,0.00,22.1,21.2,00.0,31.1,23.7,08.4,0000.0,0009.73,0003.04,0001.75
2021-12-21 10:26:00,,0822.5,5.00,0.00,22.0,21.2,00.0,31.1,23.6,08.9,0000.0,0010.49,0003.45,0002.21
2021-12-21 10:27:00,,0822.6,5.01,0.00,22.0,21.1,00.0,31.1,23.5,09.0,0000.0,0011.78,0003.84,0002.69
2021-12-21 10:28:00,,0822.6,4.99,0.00,21.9,21.1,00.0,31.0,23.4,09.1,0000.0,0013.02,0004.25,0003.15
2021-12-21 10:29:00,,0822.6,5.01,0.00,21.9,21.0,00.0,31.0,23.4,09.1,0000.0,0014.00,0004.62,0003.40
2021-12-21 10:30:00,,0822.6,4.98,0.00,21.8,21.0,00.0,31.0,23.4,09.1,0000.0,0014.16,0004.75,0003.50
2021-12-21 10:31:00,,0822.5,5.02,0.00,21.9,21.5,00.0,31.0,23.5,08.7,0000.0,0013.45,0004.69,0003.50
2021-12-21 10:32:00,,0822.6,4.99,0.00,22.0,22.5,00.0,31.1,23.9,08.6,0000.0,0013.93,0004.86,0003.60
2021-12-21 10:33:00,,0822.7,5.01,0.00,22.2,23.1,00.0,31.1,24.2,08.9,0000.0,0014.26,0005.19,0003.84
2021-12-21 10:34:00,,0822.2,5.00,0.00,22.3,22.9,00.0,31.1,24.2,08.0,0000.0,0014.60,0005.42,0004.04
2021-12-21 10:35:00,,0821.9,5.00,0.00,22.3,22.7,00.0,31.1,24.1,06.4,0000.0,0014.54,0005.42,0004.04
2021-12-21 10:36:00,,0822.3,5.01,0.00,22.3,22.4,00.0,31.1,24.0,06.6,0000.0,0013.87,0005.18,0003.90
2021-12-21 10:37:00,,0822.6,4.99,0.00,22.2,22.2,00.0,31.2,23.9,07.1,0000.0,0013.32,0004.94,0003.76
2021-12-21 10:38:00,,0822.5,5.00,0.00,22.2,22.0,00.0,31.2,23.9,07.4,0000.0,0012.63,0004.78,0003.60
2021-12-21 10:39:00,,0822.4,5.01,0.00,22.2,21.8,00.0,31.2,23.8,07.1,0000.0,0011.77,0004.54,0003.44
2021-12-21 10:40:00,,0822.4,4.99,0.00,22.2,21.7,00.0,31.2,23.8,06.4,0000.0,0010.76,0004.22,0003.24
2021-12-21 10:41:00,,0822.5,5.00,0.00,22.1,21.6,00.0,31.1,23.8,06.8,0000.0,0010.57,0003.97,0003.00
2021-12-21 10:42:00,,0822.4,5.00,0.00,22.1,21.6,00.0,31.1,23.8,06.9,0000.0,0009.82,0003.71,0002.72
2021-12-21 10:43:00,,0822.5,5.01,0.00,22.1,21.5,00.0,31.1,23.7,06.6,0000.0,0008.53,0003.45,0002.46
2021-12-21 10:44:00,,0822.6,5.00,0.00,22.1,21.4,00.0,31.1,23.7,05.9,0000.0,0007.90,0003.09,0002.04
2021-12-21 10:45:00,,0822.6,5.01,0.00,22.1,21.4,00.0,31.1,23.7,06.9,0000.0,0007.86,0002.88,0001.81
2021-12-21 10:46:00,,0822.6,4.99,0.00,22.0,21.3,00.0,31.1,23.6,07.6,0000.0,0008.25,0003.08,0001.97
2021-12-21 10:47:00,,0822.5,5.00,0.00,22.0,21.2,00.0,31.1,23.5,07.7,0000.0,0008.61,0003.27,0002.17
2021-12-21 10:48:00,,0822.6,5.00,0.00,22.0,21.2,00.0,31.1,23.5,08.4,0000.0,0009.33,0003.40,0002.32
2021-12-21 10:49:00,,0822.4,5.00,0.00,21.9,21.1,00.0,31.1,23.5,08.2,0000.0,0009.44,0003.47,0002.48
2021-12-21 10:50:00,,0822.4,5.00,0.00,21.9,21.1,00.0,31.0,23.4,06.9,0000.0,0010.45,0003.49,0002.46
2021-12-21 10:51:00,,0822.4,5.00,0.00,21.9,21.0,00.0,31.0,23.5,06.5,0000.0,0010.77,0003.50,0002.48
2021-12-21 10:52:00,,0822.4,4.99,0.00,21.9,21.0,00.0,31.0,23.4,06.8,0000.0,0009.70,0003.47,0002.47
2021-12-21 10:53:00,,0822.5,5.00,0.00,21.9,21.0,00.0,31.0,23.4,06.6,0000.0,0009.75,0003.47,0002.45
2021-12-21 10:54:00,,0822.7,5.00,0.00,21.8,21.0,00.0,31.0,23.4,07.2,0000.0,0010.01,0003.53,0002.49
2021-12-21 10:55:00,,0822.6,5.02,0.00,21.8,21.0,00.0,30.9,23.4,08.0,0000.0,0010.62,0003.78,0002.75
2021-12-21 10:56:00,,0822.6,4.99,0.00,21.8,21.0,00.0,30.9,23.4,08.0,0000.0,0011.40,0003.91,0002.93
2021-12-21 10:57:00,,0822.7,5.01,0.00,21.8,21.2,00.0,30.9,23.4,08.4,0000.0,0012.49,0003.96,0003.02
2021-12-21 10:58:00,,0822.6,5.00,0.00,21.9,22.0,00.0,30.9,23.7,08.4,0000.0,0012.73,0003.97,0003.07
2021-12-21 10:59:00,,0822.5,4.99,0.00,22.0,22.8,00.0,31.0,24.0,08.1,0000.0,0011.86,0003.91,0003.04
